Location: Bradley
(41.1420°N, 87.8610°W)
Time: 00:42:26
(UTC-05:00)

N. Korean satellite - Visible Passes

Search period start: 21 October 2018 00:00
Search period end: 31 October 2018 00:00
Orbit: 459 x 510 km, 97.2° (Epoch: 20 October)

Date Brightness Start Highest point End Pass type
(mag) Time Alt. Az. Time Alt. Az. Time Alt. Az.
21 Oct 10.6 06:06:59 10° ENE 06:07:53 11° E 06:08:47 10° ESE visible
22 Oct 9.9 19:23:36 10° SW 19:26:06 17° W 19:28:38 10° NW visible
23 Oct 8.7 18:58:09 10° SSW 19:01:33 33° W 19:04:58 10° NNW visible
24 Oct 9.9 06:25:35 10° NE 06:28:13 19° E 06:30:48 10° SE visible
24 Oct 7.0 18:33:21 10° S 18:37:04 70° W 18:40:49 10° NNW visible
26 Oct 9.7 19:19:05 10° SW 19:21:48 19° W 19:24:31 10° NW visible
27 Oct 8.7 06:45:09 10° NNE 06:48:26 33° E 06:51:38 10° SSE visible
27 Oct 8.4 18:53:46 10° SSW 18:57:14 37° W 19:00:44 10° NNW visible
28 Oct 9.9 06:21:29 10° NE 06:23:51 17° E 06:26:11 10° SE visible
28 Oct 6.8 18:29:02 10° S 18:32:46 79° WSW 18:36:31 10° NNW visible
29 Oct 10.4 19:41:08 10° WSW 19:42:05 11° W 19:43:02 10° WNW visible
30 Oct 9.5 19:14:34 10° SW 19:17:26 21° W 19:20:20 10° NW visible
